Tracking 19831 objects as of 23-Aug-2019
HD Live streaming from Space Station
objects crossing your sky now

COSMOS 2251 DEB

Track COSMOS 2251 DEB now!
10-day predictions


NORAD ID: 36526
Int'l Code: 1993-036BCL
Perigee: 563.2 km
Apogee: 773.3 km
Inclination: 74.0 °
Period: 98.0 minutes
Semi major axis: 7039 km
RCS: 0.0135 m2 (small)
Launch date: June 16, 1993
Source: Commonwealth of Independent States (former USSR) (CIS)
Launch site: PLESETSK MISSILE AND SPACE COMPLEX (PKMTR)

Note: This is SATELLITE DEBRIS
aabbcc
Your satellite tracking list
Your tracking list is empty




NASA's NSSDC Master Catalog

Two Line Element Set (TLE):
1 36526U 93036BCL 11363.76566903 +.00008279 +00000-0 +11660-2 0  9991
2 36526 073.9721 149.0762 0149228 135.0059 226.5290 14.69981048121203
Source of the keplerian elements: AFSPC